F4ECA-13 Weather Reports


time (UTC)temp
C
wind
direction
speed
KPH
gust
KPH
rain 1hr
cm
rain 24hr
cm
rain mn
cm
humidity
%
barometer
mb
20260506043545 -17 0 3.2 4.8 0.00 0.94 7.82 1004.9
20260506042524 13 0 3.2 4.8 0.00 0.94 7.82 63 1004.9
20260506041551 13 0 4.8 4.8 0.00 0.94 7.82 63 1004.9
20260506040524 13 0 6.4 8.0 0.20 0.84 7.82 63 1004.9
20260506035524 13 0 4.8 4.8 0.10 0.74 7.80 63 1004.9
20260506034515 13 0 6.4 6.4 0.10 0.74 7.80 63 1004.9
20260506033607 13 158 4.8 6.4 0.10 0.74 7.80 63 1004.9
20260506032644 13 158 3.2 4.8 0.10 0.74 7.80 63 1004.9
20260506031528 13 158 1.6 1.6 0.10 0.74 7.80 63 1004.9
20260506030528 13 158 3.2 3.2 0.10 0.64 7.80 63 1004.9
20260506025546 13 158 1.6 1.6 0.10 0.64 7.80 63 1004.9
20260506024525 13 158 1.6 3.2 0.10 0.64 7.80 62 1004.9
20260506023545 13 158 1.6 1.6 0.10 0.64 7.80 62 1004.9
20260506022521 13 90 3.2 3.2 0.10 0.64 7.80 62 1004.9
20260506021524 13 90 1.6 4.8 0.00 0.53 7.80 62 1004.9
20260506020603 13 90 1.6 3.2 0.00 0.64 7.80 62 1004.9
20260506015607 13 90 1.6 4.8 0.00 0.64 7.80 62 1004.9
20260506014524 13 90 0.0 1.6 0.00 0.64 7.80 62 1004.9
20260506013517 13 90 1.6 3.2 7.04 9.98 7.80 62 1004.9
20260506012524 13 0.0 0.0 0.00 14.35 7.09 62 1004.9
20260506011602 14 90 1.6 3.2 0.00 0.64 7.09 62 1004.9
20260506010525 14 90 3.2 3.2 0.00 0.64 7.09 62 1005.9